FW7889 Weather Reports


Display with metric or nautical units.
time (UTC)temp
F
wind
direction
speed
MPH
gust
MPH
rain 1hr
in
rain 24hr
in
rain mn
in
humidity
%
barometer
mb
20260903222133 72 293 1.0 1.0 0.00 0.00 0.00 78 1067.7
20260903221132 72 287 1.0 1.0 0.00 0.00 0.00 76 1067.5
20260903220132 72 291 0.0 1.0 0.00 0.00 0.00 75 1067.7
20260903215132 73 315 2.0 2.0 0.00 0.00 0.00 74 1067.8
20260903214126 74 318 3.0 3.0 0.00 0.00 0.00 72 1067.7
20260903213122 74 274 2.0 2.0 0.00 0.00 0.00 73 1067.5
20260903212119 74 310 2.0 2.0 0.00 0.00 0.00 72 1067.4
20260903211117 75 321 3.0 3.0 0.00 0.00 0.00 70 1067.6
20260903210114 75 319 2.0 3.0 0.00 0.00 0.00 69 1067.8
20260903205112 75 337 4.0 5.0 0.00 0.00 0.00 71 1067.8
20260903204109 75 341 3.0 3.0 0.00 0.00 0.00 71 1068.0
20260903203105 75 315 1.0 2.0 0.00 0.00 0.00 71 1067.7
20260903202102 75 307 3.0 3.0 0.00 0.00 0.00 70 1068.1
20260903201102 77 340 3.0 3.0 0.00 0.00 0.00 68 1068.1
20260903200058 76 324 2.0 3.0 0.00 0.00 0.00 71 1067.9
20260903195055 75 337 2.0 3.0 0.00 0.00 0.00 71 1067.7
20260903194051 75 318 5.0 7.0 0.00 0.00 0.00 71 1067.9
20260903193048 75 332 3.0 3.0 0.00 0.00 0.00 70 1067.9
20260903192045 75 330 3.0 3.0 0.00 0.00 0.00 71 1067.8
20260903191042 76 344 5.0 6.0 0.00 0.00 0.00 70 1068.0
20260903190041 75 296 2.0 2.0 0.00 0.00 0.00 71 1068.2
20260903185038 75 300 1.0 1.0 0.00 0.00 0.00 71 1067.9
20260903184035 75 311 1.0 2.0 0.00 0.00 0.00 71 1068.0
20260903183035 77 319 1.0 2.0 0.00 0.00 0.00 67 1067.9
20260903182030 75 247 5.0 6.0 0.00 0.00 0.00 69 1067.9
20260903181028 77 293 2.0 2.0 0.00 0.00 0.00 70 1068.0
20260903180024 76 250 3.0 5.0 0.00 0.00 0.00 72 1068.1
20260903175022 75 321 3.0 3.0 0.00 0.00 0.00 70 1068.1
20260903174017 76 330 2.0 3.0 0.00 0.00 0.00 70 1068.0
20260903173014 75 297 2.0 2.0 0.00 0.00 0.00 70 1068.1
20260903172010 75 273 1.0 1.0 0.00 0.00 0.00 75 1068.1
20260903171006 75 349 3.0 5.0 0.00 0.00 0.00 76 1068.4
20260903170006 74 247 3.0 3.0 0.00 0.00 0.00 79 1068.2
20260903165000 73 298 1.0 1.0 0.00 0.00 0.00 83 1068.4
20260903163954 73 297 2.0 2.0 0.00 0.00 0.00 88 1068.4
20260903162952 72 263 5.0 6.0 0.00 0.00 0.00 89 1068.7
20260903161950 72 260 7.0 8.0 0.00 0.00 0.00 92 1068.8
20260903160947 71 300 1.0 1.0 0.00 0.00 0.00 94 1068.8
20260903155945 71 259 2.0 2.0 0.00 0.00 0.00 95 1068.5
20260903154941 70 255 4.0 5.0 0.00 0.00 0.00 98 1068.8
20260903153938 68 257 1.0 1.0 0.00 0.00 0.00 99 1068.9
20260903152935 68 280 0.0 1.0 0.00 0.00 0.00 99 1068.8
20260903151932 67 265 3.0 3.0 0.00 0.00 0.00 99 1068.8
20260903150927 67 261 0.0 0.0 0.00 0.00 0.00 99 1068.9
20260903145922 67 261 4.0 6.0 0.00 0.00 0.00 99 1069.1
20260903144918 66 260 2.0 2.0 0.00 0.00 0.00 99 1068.8
20260903143913 66 250 3.0 3.0 0.00 0.00 0.00 99 1068.9
20260903142911 66 255 4.0 5.0 0.00 0.00 0.00 99 1068.8
20260903141908 66 279 4.0 5.0 0.00 0.00 0.00 99 1068.8
20260903140905 66 273 2.0 2.0 0.00 0.00 0.00 99 1068.5
20260903135901 66 250 4.0 5.0 0.00 0.00 0.00 99 1068.8
20260903134901 66 285 4.0 6.0 0.00 0.00 0.00 99 1068.8
20260903133900 66 257 5.0 6.0 0.00 0.00 0.00 99 1068.9
20260903132857 66 259 0.0 1.0 0.00 0.00 0.00 99 1068.5
20260903131852 66 265 2.0 2.0 0.00 0.00 0.00 99 1068.9
20260903130851 66 262 1.0 1.0 0.00 0.00 0.00 99 1069.1
20260903125851 66 266 1.0 1.0 0.00 0.00 0.00 99 1068.9
20260903124851 65 252 4.0 5.0 0.00 0.00 0.00 99 1068.9
20260903123851 65 269 1.0 1.0 0.00 0.00 0.00 99 1069.0
20260903122851 65 266 1.0 2.0 0.00 0.00 0.00 99 1068.8
20260903121850 65 275 2.0 2.0 0.00 0.00 0.00 99 1068.7
20260903120847 65 266 1.0 1.0 0.00 0.00 0.00 99 1068.5
20260903115845 65 265 2.0 2.0 0.00 0.00 0.00 99 1068.4
20260903114839 65 262 1.0 1.0 0.00 0.00 0.00 99 1068.8
20260903113836 65 276 1.0 2.0 0.00 0.00 0.00 99 1068.5
20260903112834 65 264 2.0 2.0 0.00 0.00 0.00 99 1068.5
20260903111828 65 276 3.0 3.0 0.00 0.00 0.00 99 1068.3
20260903110825 65 256 3.0 3.0 0.00 0.00 0.00 99 1068.7
20260903105820 65 262 2.0 2.0 0.00 0.00 0.00 99 1068.5
20260903104815 65 264 2.0 3.0 0.00 0.00 0.00 99 1068.4
20260903103812 65 267 2.0 2.0 0.00 0.00 0.00 99 1068.3
20260903102809 65 273 2.0 2.0 0.00 0.00 0.00 99 1068.7
20260903101808 64 261 3.0 3.0 0.00 0.00 0.00 99 1068.7
20260903100805 64 250 1.0 2.0 0.00 0.00 0.00 99 1068.5
20260903095802 64 269 0.0 0.0 0.00 0.00 0.00 99 1068.5
20260903094758 64 265 0.0 0.0 0.00 0.00 0.00 99 1068.3
20260903093754 64 270 1.0 1.0 0.00 0.00 0.00 99 1068.3
20260903092749 64 263 0.0 0.0 0.00 0.00 0.00 99 1068.3
20260903091749 64 272 0.0 0.0 0.00 0.00 0.00 99 1068.2
20260903090745 64 272 0.0 0.0 0.00 0.00 0.00 99 1068.7
20260903085743 64 265 0.0 0.0 0.00 0.00 0.00 99 1068.3
20260903084742 64 269 0.0 0.0 0.00 0.00 0.00 99 1068.4
20260903083738 64 269 0.0 0.0 0.00 0.00 0.00 99 1068.3
20260903082737 64 272 0.0 0.0 0.00 0.00 0.00 99 1068.1
20260903081733 64 263 0.0 0.0 0.00 0.00 0.00 99 1068.3
20260903080731 64 272 0.0 0.0 0.00 0.00 0.00 99 1068.3
20260903075728 64 263 0.0 0.0 0.00 0.00 0.00 99 1068.5
20260903074727 64 272 1.0 1.0 0.00 0.00 0.00 99 1068.5
20260903073724 64 286 1.0 1.0 0.00 0.00 0.00 99 1068.7
20260903072721 64 275 1.0 1.0 0.00 0.00 0.00 99 1068.5
20260903071719 64 284 2.0 2.0 0.00 0.00 0.00 99 1068.5
20260903070714 64 288 2.0 2.0 0.00 0.00 0.00 99 1068.5
20260903065711 64 282 2.0 2.0 0.00 0.00 0.00 99 1068.7
20260903064709 64 284 1.0 2.0 0.00 0.00 0.00 99 1068.7
20260903063707 64 244 3.0 3.0 0.00 0.00 0.00 99 1068.7
20260903062703 64 271 2.0 2.0 0.00 0.00 0.00 99 1068.3
20260903061659 64 285 1.0 1.0 0.00 0.00 0.00 99 1068.2
20260903060659 64 274 0.0 0.0 0.00 0.00 0.00 99 1067.9
20260903055658 64 265 0.0 0.0 0.00 0.00 0.00 99 1068.2
20260903054657 64 272 3.0 5.0 0.00 0.00 0.00 99 1068.7
20260903053654 64 264 1.0 1.0 0.00 0.00 0.00 99 1068.4
20260903052651 64 268 4.0 5.0 0.00 0.00 0.00 99 1068.4
20260903051647 64 273 1.0 1.0 0.00 0.00 0.00 99 1068.4
20260903050643 64 266 3.0 5.0 0.00 0.00 0.00 99 1068.4
20260903045643 64 241 0.0 1.0 0.00 0.00 0.00 99 1068.4
20260903044641 64 274 1.0 1.0 0.00 0.00 0.00 99 1068.7
20260903043640 64 277 1.0 2.0 0.00 0.00 0.00 99 1068.8
20260903042638 64 274 2.0 2.0 0.00 0.00 0.00 99 1069.1
20260903041636 64 272 3.0 3.0 0.00 0.00 0.00 99 1068.9
20260903040636 65 287 7.0 8.0 0.00 0.00 0.00 99 1068.5
20260903035633 65 268 3.0 3.0 0.00 0.21 0.21 99 1068.5
20260903034629 65 296 3.0 3.0 0.00 0.21 0.21 99 1068.5
20260903033626 65 271 3.0 3.0 0.00 0.21 0.21 99 1068.3
20260903032627 65 273 0.0 0.0 0.00 0.21 0.21 99 1068.0
20260903031623 65 287 3.0 5.0 0.07 0.21 0.21 99 1067.9
20260903030620 65 284 1.0 2.0 0.00 0.20 0.20 99 1067.7
20260903025616 64 292 3.0 3.0 0.12 0.20 0.20 99 1068.4
20260903024612 64 297 4.0 5.0 0.05 0.18 0.18 99 1068.0
20260903023608 65 301 2.0 3.0 0.19 0.16 0.16 99 1067.4
20260903022608 64 275 4.0 5.0 0.17 0.13 0.13 99 1069.0
20260903021608 64 290 4.0 5.0 0.12 0.10 0.10 99 1069.3
20260903020604 65 274 6.0 8.0 0.12 0.07 0.07 99 1069.5
20260903015559 65 265 1.0 1.0 0.12 0.05 0.05 99 1069.2
20260903014554 65 243 1.0 2.0 0.07 0.03 0.03 99 1069.4
20260903013555 65 210 3.0 3.0 0.05 0.02 0.02 99 1069.1
20260903012554 65 212 3.0 3.0 0.00 0.01 0.01 99 1069.4
20260903011554 65 241 3.0 5.0 0.07 0.01 0.01 99 1069.3
20260903010549 65 219 5.0 7.0 0.00 0.00 0.00 99 1069.6
20260903005548 65 200 3.0 5.0 0.00 0.00 0.00 99 1070.0
20260903004544 65 216 4.0 6.0 0.00 0.00 0.00 99 1069.8
20260903003540 65 229 4.0 6.0 0.00 0.00 0.00 99 1069.6
20260903002536 66 215 4.0 5.0 0.00 0.00 0.00 99 1069.7
20260903001531 66 223 2.0 3.0 0.00 0.00 0.00 99 1069.9
20260903000526 66 249 2.0 2.0 0.00 0.00 0.00 99 1069.9
20260902235525 66 202 3.0 5.0 0.00 0.00 0.00 99 1070.4
20260902234520 66 201 4.0 6.0 0.00 0.00 0.00 99 1070.2
20260902233519 66 216 4.0 6.0 0.00 0.00 0.00 99 1070.2
20260902232519 67 244 2.0 3.0 0.00 0.00 0.00 99 1069.3
20260902231514 67 238 3.0 5.0 0.00 0.00 0.00 99 1068.9
20260902230514 67 221 3.0 3.0 0.00 0.00 0.00 98 1068.4
20260902225509 67 194 8.0 10.0 0.00 0.00 0.00 98 1068.5
20260902224508 67 189 6.0 8.0 0.00 0.00 0.00 97 1069.0
20260902223506 68 204 2.0 2.0 0.00 0.00 0.00 97 1068.9
20260902222504 68 203 5.0 6.0 0.00 0.00 0.00 97 1068.9